| time (UTC) | temp C | wind direction | speed KPH | gust KPH | rain 1hr cm | rain 24hr cm | rain mn cm | humidity % | barometer mb |
| 20260502163046 | 12 | 180 | 8.0 | 20.9 | 0.03 | 0.05 | 0.03 | 44 | 1016.3 |
| 20260502161544 | 12 | 180 | 11.3 | 24.1 | 0.03 | 0.05 | 0.03 | 43 | 1016.4 |
| 20260502151548 | 11 | 180 | 8.0 | 17.7 | 0.00 | 0.03 | 0.00 | 48 | 1016.8 |
| 20260502123034 | 4 | 0 | 0.0 | 0.0 | 0.00 | 0.03 | 0.00 | 91 | 1017.0 |
| 20260502121540 | 3 | 0 | 0.0 | 0.0 | 0.00 | 0.03 | 0.00 | 91 | 1016.8 |
| 20260502114540 | 3 | 0 | 0.0 | 0.0 | 0.00 | 0.03 | 0.00 | 91 | 1017.0 |
| 20260502113044 | 3 | 0 | 0.0 | 0.0 | 0.00 | 0.03 | 0.00 | 91 | 1016.7 |
| 20260502111545 | 3 | 0 | 0.0 | 0.0 | 0.00 | 0.03 | 0.00 | 91 | 1016.7 |
| 20260502110041 | 3 | 0 | 0.0 | 3.2 | 0.00 | 0.03 | 0.00 | 91 | 1016.6 |
| 20260502104547 | 3 | 0 | 0.0 | 3.2 | 0.00 | 0.03 | 0.00 | 90 | 1016.6 |
| 20260502103036 | 3 | 0 | 0.0 | 0.0 | 0.00 | 0.03 | 0.00 | 90 | 1016.5 |
| 20260502101609 | 3 | 0 | 0.0 | 0.0 | 0.00 | 0.03 | 0.00 | 90 | 1016.8 |
| 20260502070052 | 5 | 0 | 0.0 | 0.0 | 0.00 | 0.03 | 0.00 | 82 | 1016.5 |
| 20260502064540 | 5 | 0 | 0.0 | 0.0 | 0.00 | 0.03 | 0.00 | 81 | 1016.5 |
| 20260502063039 | 6 | 0 | 0.0 | 0.0 | 0.00 | 0.03 | 0.00 | 79 | 1016.6 |
| 20260502061537 | 6 | 0 | 0.0 | 1.6 | 0.00 | 0.03 | 0.00 | 78 | 1016.8 |
| 20260502060035 | 6 | 0 | 0.0 | 3.2 | 0.00 | 0.03 | 0.00 | 76 | 1016.7 |
| 20260502054541 | 7 | 0 | 0.0 | 0.0 | 0.00 | 0.03 | 0.00 | 73 | 1016.8 |
| 20260502053039 | 7 | 0 | 0.0 | 1.6 | 0.00 | 0.03 | 0.00 | 71 | 1016.8 |
| 20260502051544 | 8 | 0 | 0.0 | 1.6 | 0.00 | 0.03 | 0.00 | 69 | 1016.7 |
| 20260502050044 | 8 | 0 | 0.0 | 1.6 | 0.00 | 0.03 | 0.00 | 67 | 1016.8 |
| 20260502044540 | 9 | 180 | 0.0 | 1.6 | 0.00 | 0.03 | 0.00 | 64 | 1016.5 |
| 20260502043040 | 10 | 0 | 0.0 | 8.0 | 0.00 | 0.03 | 0.00 | 61 | 1016.9 |
| 20260502041537 | 10 | 180 | 3.2 | 9.7 | 0.00 | 0.03 | 0.00 | 60 | 1016.7 |
| 20260502040045 | 10 | 180 | 1.6 | 9.7 | 0.00 | 0.03 | 0.00 | 61 | 1016.7 |
| 20260502034542 | 10 | 180 | 4.8 | 9.7 | 0.00 | 0.03 | 0.03 | 61 | 1016.7 |
| 20260502033042 | 10 | 180 | 1.6 | 8.0 | 0.00 | 0.03 | 0.03 | 61 | 1016.6 |
| 20260502031541 | 11 | 180 | 4.8 | 17.7 | 0.00 | 0.03 | 0.03 | 61 | 1016.8 |
| 20260502030038 | 11 | 180 | 9.7 | 17.7 | 0.00 | 0.03 | 0.03 | 62 | 1016.8 |
| 20260502024543 | 11 | 180 | 3.2 | 14.5 | 0.00 | 0.05 | 0.03 | 66 | 1016.4 |
| 20260502023055 | 11 | 180 | 1.6 | 12.9 | 0.00 | 0.05 | 0.03 | 66 | 1016.4 |
| 20260502021540 | 11 | 180 | 3.2 | 12.9 | 0.00 | 0.05 | 0.03 | 66 | 1016.4 |
| 20260502020058 | 11 | 180 | 4.8 | 17.7 | 0.00 | 0.05 | 0.03 | 66 | 1015.9 |
| 20260502014534 | 11 | 180 | 9.7 | 20.9 | 0.00 | 0.05 | 0.03 | 69 | 1015.6 |
| 20260502013052 | 11 | 0 | 0.0 | 0.0 | 0.00 | 0.05 | 0.03 | 71 | 1015.1 |
| 20260502011827 | 11 | 0 | 0.0 | 0.0 | 0.00 | 0.05 | 0.03 | 68 | 1014.8 |
| 20260502004601 | 12 | 180 | 0.0 | 4.8 | 0.00 | 0.05 | 0.03 | 64 | 1014.6 |
| 20260502003042 | 12 | 180 | 3.2 | 8.0 | 0.00 | 0.05 | 0.03 | 62 | 1014.4 |
| 20260502001601 | 12 | 180 | 4.8 | 16.1 | 0.00 | 0.05 | 0.03 | 60 | 1014.3 |
| 20260502000039 | 13 | 180 | 3.2 | 14.5 | 0.00 | 0.05 | 0.03 | 58 | 1013.8 |
| 20260501234550 | 13 | 180 | 8.0 | 16.1 | 0.00 | 0.05 | 0.03 | 55 | 1013.2 |
| 20260501233053 | 13 | 0 | 1.6 | 9.7 | 0.00 | 0.05 | 0.03 | 59 | 1013.0 |
| 20260501231541 | 13 | 180 | 3.2 | 12.9 | 0.00 | 0.05 | 0.03 | 59 | 1012.8 |
| 20260501230040 | 14 | 180 | 8.0 | 16.1 | 0.00 | 0.05 | 0.03 | 59 | 1012.8 |
| 20260501224540 | 14 | 0 | 6.4 | 16.1 | 0.00 | 0.05 | 0.03 | 62 | 1012.8 |
| 20260501223033 | 14 | 180 | 4.8 | 14.5 | 0.00 | 0.05 | 0.03 | 61 | 1012.7 |
| 20260501221540 | 15 | 180 | 6.4 | 19.3 | 0.00 | 0.05 | 0.03 | 60 | 1012.5 |
| 20260501220111 | 15 | 180 | 8.0 | 17.7 | 0.00 | 0.05 | 0.03 | 58 | 1012.3 |
| 20260501214541 | 15 | 180 | 6.4 | 24.1 | 0.00 | 0.05 | 0.03 | 56 | 1012.4 |
| 20260501213040 | 16 | 180 | 9.7 | 22.5 | 0.00 | 0.05 | 0.03 | 52 | 1011.7 |
| 20260501211554 | 17 | 180 | 9.7 | 30.6 | 0.00 | 0.05 | 0.03 | 45 | 1011.4 |
| 20260501210056 | 18 | 180 | 4.8 | 14.5 | 0.00 | 0.05 | 0.03 | 41 | 1010.7 |
| 20260501204544 | 18 | 180 | 4.8 | 12.9 | 0.00 | 0.05 | 0.03 | 39 | 1010.6 |
| 20260501203042 | 19 | 180 | 0.0 | 6.4 | 0.00 | 0.05 | 0.03 | 36 | 1010.7 |
| 20260501201542 | 20 | 180 | 3.2 | 14.5 | 0.00 | 0.05 | 0.03 | 33 | 1010.4 |
| 20260501200046 | 21 | 180 | 4.8 | 16.1 | 0.00 | 0.05 | 0.03 | 29 | 1010.3 |
| 20260501194540 | 21 | 180 | 3.2 | 19.3 | 0.00 | 0.05 | 0.03 | 32 | 1010.4 |
| 20260501193047 | 20 | 180 | 1.6 | 17.7 | 0.03 | 0.05 | 0.03 | 32 | 1010.4 |
| 20260501191539 | 20 | 180 | 8.0 | 29.0 | 0.03 | 0.05 | 0.03 | 29 | 1010.7 |
| 20260501190040 | 20 | 180 | 8.0 | 17.7 | 0.03 | 0.05 | 0.03 | 30 | 1010.8 |
| 20260501184536 | 19 | 180 | 6.4 | 25.7 | 0.03 | 0.05 | 0.03 | 31 | 1011.1 |
| 20260501183056 | 18 | 180 | 4.8 | 22.5 | 0.00 | 0.03 | 0.00 | 25 | 1011.3 |
| 20260501181557 | 19 | 180 | 9.7 | 30.6 | 0.00 | 0.03 | 0.00 | 27 | 1011.3 |
| 20260501180040 | 18 | 180 | 4.8 | 24.1 | 0.00 | 0.03 | 0.00 | 30 | 1011.3 |
| 20260501174536 | 19 | 180 | 6.4 | 22.5 | 0.00 | 0.03 | 0.00 | 25 | 1011.5 |
| 20260501173044 | 19 | 180 | 4.8 | 14.5 | 0.00 | 0.03 | 0.00 | 28 | 1011.5 |
| 20260501171542 | 18 | 180 | 6.4 | 17.7 | 0.00 | 0.03 | 0.00 | 29 | 1011.6 |